Location: Ammerl�gen
(47.2167°N, 9.6000°E)
Time: 11:42:08
(UTC+00:00)

CZ-4 R/B DEB - Pass Details

Date: 23 October 2021
Orbit: 738 x 791 km, 98.5° (Epoch: 26 November)

Event Time Altitude Azimuth Distance (km) Brightness Sun altitude
Exits shadow 19:34:26 38° 283° (WNW) 1,131 ? -33.4°
Drops below altitude 10° 19:38:23 10° 332° (NNW) 2,259 ? -34.0°
Sets 19:40:49 0° 340° (NNW) 3,190 ? -34.4°
